GW5434 Weather Reports


Display with metric or nautical units.
time (UTC)temp
F
wind
direction
speed
MPH
gust
MPH
rain 1hr
in
rain 24hr
in
rain mn
in
humidity
%
barometer
mb
20260506091509 71 221 2.0 7.0 0.00 0.00 0.00 86 1012.2
20260506090013 71 155 3.0 7.0 0.00 0.00 0.00 86 1011.8
20260506084510 70 150 3.0 9.0 0.00 0.00 0.00 87 1011.5
20260506083010 70 204 2.0 6.0 0.00 0.00 0.00 87 1011.6
20260506081512 70 221 2.0 6.0 0.00 0.00 0.00 88 1011.7
20260506073014 70 153 3.0 5.0 0.00 0.00 0.00 88 1012.1
20260506071512 70 133 4.0 7.0 0.00 0.00 0.00 88 1012.0
20260506061524 69 174 2.0 8.0 0.00 0.00 0.00 89 1012.5
20260506044512 69 165 3.0 6.0 0.00 0.00 0.00 87 1012.8
20260506043014 69 158 3.0 7.0 0.00 0.00 0.00 86 1013.0
20260506041508 69 121 3.0 5.0 0.00 0.00 0.00 86 1013.2
20260506040005 70 134 2.0 6.0 0.00 0.00 0.00 85 1013.2
20260506034505 70 135 3.0 6.0 0.00 0.00 0.00 85 1013.2
20260506033010 70 136 3.0 6.0 0.00 0.00 0.00 84 1013.2
20260506031516 71 155 3.0 8.0 0.00 0.00 0.00 83 1013.2
20260506030012 71 104 2.0 9.0 0.00 0.00 0.00 82 1013.0
20260506024505 71 135 4.0 10.0 0.00 0.00 0.00 82 1013.0
20260506023007 72 236 3.0 9.0 0.00 0.00 0.00 81 1013.0
20260506021512 72 82 6.0 11.0 0.00 0.00 0.00 80 1012.9
20260506020010 73 113 5.0 13.0 0.00 0.00 0.00 79 1013.0
20260506014512 73 152 4.0 10.0 0.00 0.00 0.00 78 1012.9
20260506013004 73 136 4.0 11.0 0.00 0.00 0.00 78 1012.8
20260506011509 74 155 5.0 12.0 0.00 0.00 0.00 77 1012.5
20260506010014 74 129 3.0 10.0 0.00 0.00 0.00 76 1012.1
20260506004514 74 133 3.0 12.0 0.00 0.00 0.00 76 1011.9
20260506003014 75 216 4.0 15.0 0.00 0.00 0.00 75 1011.8
20260506001508 75 164 6.0 13.0 0.00 0.00 0.00 74 1011.7
20260506000010 76 172 3.0 13.0 0.00 0.00 0.00 73 1011.7
20260505234532 76 136 4.0 11.0 0.00 0.00 0.00 72 1011.8
20260505233018 76 75 6.0 12.0 0.00 0.00 0.00 72 1011.8
20260505231516 77 121 4.0 9.0 0.00 0.00 0.00 71 1011.9
20260505230012 77 213 3.0 11.0 0.00 0.00 0.00 71 1012.1
20260505224516 78 210 5.0 10.0 0.00 0.00 0.00 70 1011.8
20260505223017 78 147 3.0 7.0 0.00 0.00 0.00 69 1011.9
20260505221518 79 171 5.0 10.0 0.00 0.00 0.00 68 1011.9
20260505220018 79 195 5.0 11.0 0.00 0.00 0.00 68 1011.7
20260505214509 80 153 3.0 11.0 0.00 0.00 0.00 68 1011.9
20260505213015 81 215 6.0 9.0 0.00 0.00 0.00 65 1011.8
20260505211518 81 136 5.0 13.0 0.00 0.00 0.00 64 1011.8
20260505210022 81 171 4.0 10.0 0.00 0.00 0.00 63 1011.9
20260505204525 82 86 4.0 12.0 0.00 0.00 0.00 62 1011.9
20260505203012 83 145 6.0 14.0 0.00 0.00 0.00 59 1011.9
20260505201522 82 185 2.0 9.0 0.00 0.00 0.00 62 1012.0
20260505200024 82 198 4.0 11.0 0.00 0.00 0.00 59 1012.3
20260505194505 82 174 3.0 13.0 0.00 0.00 0.00 59 1012.3
20260505193010 82 201 4.0 10.0 0.00 0.00 0.00 60 1012.6
20260505191512 83 146 4.0 10.0 0.00 0.00 0.00 57 1012.5
20260505190020 83 172 6.0 12.0 0.00 0.00 0.00 57 1012.8
20260505184526 82 129 6.0 11.0 0.00 0.00 0.00 58 1013.0
20260505183015 83 224 6.0 13.0 0.00 0.00 0.00 56 1013.1
20260505181512 83 217 6.0 10.0 0.00 0.00 0.00 56 1013.4
20260505180016 81 124 3.0 7.0 0.00 0.00 0.00 58 1013.3
20260505174520 81 176 6.0 11.0 0.00 0.00 0.00 58 1013.5
20260505173023 82 158 3.0 13.0 0.00 0.00 0.00 59 1013.6
20260505171508 80 272 6.0 13.0 0.00 0.00 0.00 58 1013.6
20260505170011 80 233 9.0 13.0 0.00 0.00 0.00 58 1013.9
20260505164520 80 214 5.0 13.0 0.00 0.00 0.00 59 1013.9
20260505163022 79 216 6.0 13.0 0.00 0.00 0.00 61 1013.8
20260505161528 78 206 4.0 14.0 0.00 0.00 0.00 65 1013.8
20260505153018 76 237 4.0 12.0 0.00 0.00 0.00 66 1014.1
20260505151521 75 144 4.0 14.0 0.00 0.00 0.00 67 1014.3
20260505124524 56 120 0.0 0.0 0.00 0.00 0.00 94 1014.2
20260505123028 54 120 0.0 0.0 0.00 0.00 0.00 94 1014.2
20260505121513 53 120 0.0 0.0 0.00 0.00 0.00 94 1014.0
20260505120020 52 120 0.0 0.0 0.00 0.00 0.00 94 1013.9
20260505114522 51 120 0.0 0.0 0.00 0.00 0.00 94 1013.9
20260505113030 50 120 0.0 0.0 0.00 0.00 0.00 94 1013.8
20260505111511 50 120 0.0 0.0 0.00 0.00 0.00 93 1013.5
20260505101513 51 118 0.0 0.0 0.00 0.00 0.00 93 1013.7
20260505100013 51 118 0.0 0.0 0.00 0.00 0.00 94 1013.7
20260505094524 51 118 0.0 0.0 0.00 0.00 0.00 93 1013.5
20260505093004 51 119 0.0 0.0 0.00 0.00 0.00 93 1013.3